Cortez, CO

1:18 AM MDT on July 27, 2017 (GMT -0600)
Cortez Municipal

Weather History for KCEZ - September, 2015

Change the Weather History Date:

Sunday, September 13, 2015

  Actual Average Record
Temperature  
Mean Temperature 65 °F 61 °F  
Max Temperature 89 °F 79 °F 89 °F (2000)
Min Temperature 41 °F 44 °F 37 °F (1999)
Degree Days  
Heating Degree Days 0 4  
Month to date heating degree days 4 35  
Since 1 July heating degree days 4 47  
Cooling Degree Days 0 1  
Month to date cooling degree days 22 16  
Year to date cooling degree days 481 425  
Growing Degree Days 14 (Base 50)    
Moisture  
Dew Point 31 °F    
Average Humidity 38    
Maximum Humidity 65    
Minimum Humidity 10    
Precipitation  
Precipitation 0.00 in 0.05 in 0.12 in (1998)
Month to date precipitation 0.21 0.69  
Year to date precipitation 9.18 9.13  
Sea Level Pressure  
Sea Level Pressure 29.89 in    
Wind  
Wind Speed 7 mph (East)    
Max Wind Speed 26 mph    
Max Gust Speed 34 mph    
Visibility 10 miles    
Events      
T = Trace of Precipitation, MM = Missing Value Source: NWS Daily Summary

Daily Weather History Graph

Daily Weather History Graph

Search for Another Location

Airport or City:

Trip Planner

Search our weather history database for the weather conditions in past years. The results will help you decide how hot, cold, wet, or windy it might be!

Date:

Astronomy

Sep. 13, 2015 Rise Set
Actual Time 6:54 AM MDT 7:25 PM MDT
Civil Twilight 6:28 AM MDT 7:51 PM MDT
Nautical Twilight 5:57 AM MDT 8:22 PM MDT
Astronomical Twilight 5:26 AM MDT 8:53 PM MDT
Moon 7:14 AM MDT (9/13) 7:41 PM MDT (9/13)
Length of Visible Light 13h 23m
Length of Day
12h 30m
New Moon, 0% of the Moon is Illuminated
Sep 13
New Moon
Sep 21
First Quarter
Sep 27
Full
Oct 4
Last Quarter
Oct 12
New

Hourly Weather History & Observations

Time (MDT) Temp. Windchill Dew Point Humidity Pressure Visibility Wind Dir Wind Speed Gust Speed Precip Events Conditions
12:53 AM 51.1 °F - 33.1 °F 50% 29.94 in 10.0 mi NE 6.9 mph - N/A   Clear
1:53 AM 50.0 °F - 28.9 °F 44% 29.93 in 10.0 mi ENE 4.6 mph - N/A   Clear
2:53 AM 46.0 °F 43.9 °F 30.0 °F 54% 29.93 in 10.0 mi East 4.6 mph - N/A   Clear
3:53 AM 46.0 °F 43.9 °F 28.9 °F 51% 29.93 in 10.0 mi ENE 4.6 mph - N/A   Clear
4:53 AM 43.0 °F 41.3 °F 30.0 °F 60% 29.94 in 10.0 mi East 3.5 mph - N/A   Clear
5:53 AM 44.1 °F 42.5 °F 28.9 °F 55% 29.94 in 10.0 mi ENE 3.5 mph - N/A   Clear
6:53 AM 41.0 °F 37.1 °F 30.9 °F 67% 29.97 in 10.0 mi ESE 5.8 mph - N/A   Clear
7:53 AM 48.9 °F - 30.9 °F 50% 30.00 in 10.0 mi ENE 5.8 mph - N/A   Clear
8:53 AM 62.1 °F - 30.0 °F 30% 29.98 in 10.0 mi NNE 3.5 mph - N/A   Clear
9:53 AM 72.0 °F - 32.0 °F 23% 29.95 in 10.0 mi Variable 3.5 mph - N/A   Clear
10:53 AM 79.0 °F - 30.0 °F 17% 29.94 in 10.0 mi Calm Calm - N/A   Clear
11:53 AM 80.1 °F - 30.9 °F 17% 29.93 in 10.0 mi SSW 9.2 mph - N/A   Clear
12:53 PM 82.0 °F - 30.0 °F 15% 29.90 in 10.0 mi Variable 4.6 mph - N/A   Clear
1:53 PM 84.0 °F - 32.0 °F 15% 29.88 in 10.0 mi North - - N/A   Clear
2:53 PM 87.1 °F - 28.0 °F 12% 29.84 in 10.0 mi SSW 8.1 mph - N/A   Clear
3:53 PM 88.0 °F - 27.0 °F 11% 29.81 in 10.0 mi Variable 4.6 mph - N/A   Clear
4:53 PM 84.9 °F - 23.0 °F 10% 29.81 in 10.0 mi WNW 12.7 mph - N/A   Clear
5:53 PM 84.0 °F - 23.0 °F 11% 29.79 in 10.0 mi NW 9.2 mph - N/A   Clear
6:53 PM 78.1 °F - 27.0 °F 15% 29.81 in 10.0 mi West 4.6 mph - N/A   Clear
7:53 PM 63.0 °F - 39.0 °F 41% 29.83 in 10.0 mi SSE 5.8 mph - N/A   Clear
8:53 PM 63.0 °F - 34.0 °F 34% 29.81 in 10.0 mi ENE 8.1 mph - N/A   Clear
9:53 PM 62.1 °F - 33.1 °F 34% 29.81 in 10.0 mi SSW 6.9 mph - N/A   Clear
10:53 PM 73.0 °F - 41.0 °F 31% 29.77 in 10.0 mi SSW 21.9 mph 27.6 mph N/A   Clear
11:53 PM 68.0 °F - 39.9 °F 36% 29.81 in 10.0 mi Variable 6.9 mph - N/A   Clear